{"data":{"norad_id":65868,"intl_designator":"2025-223Q","name":"STARLINK-35450","alt_names":[],"object_type":"PAYLOAD","status":"ACTIVE","operator":null,"country":"US","launch_date":"2025-10-03","launch_site_code":"AFWTR","launch_vehicle":null,"mission":null,"orbit_class":"UNKNOWN","rcs_meters":null,"size_class":null,"mass_kg":null,"dimensions":null,"purposes":["comms"],"wikipedia_slug":null,"has_3d_model":false,"image_url":null,"decayed_at":null,"tle_current":{"epoch":"2026-05-24T19:28:52.098240Z","epoch_age_seconds":85217,"freshness":"FRESH","line1":"1 65868U 25223Q   26144.81171410  .00022348  00000+0  67059-3 0  9995","line2":"2 65868  53.1603 300.3618 0000981  62.6306 297.4797 15.34399875 35866","mean_motion":15.34399875,"eccentricity":9.81e-5,"inclination_deg":53.1603,"raan_deg":300.3618,"arg_perigee_deg":62.6306,"mean_anomaly_deg":297.4797,"bstar":0.00067059,"rev_number":3586,"period_min":93.847765726649,"perigee_km":462.03252526946,"apogee_km":463.37469819748,"semimajor_km":6840.8406117335,"source":"CELESTRAK","updated_at":"2026-05-25T13:38:20.975027Z"}}}